Location: Castillon
(43.0896°N, 0.2156°E)
Time: 02:56:32
(UTC+00:00)

Cosmos 389 Rocket - Pass Details

Date: 16 June 2021
Orbit: 440 x 471 km, 81.1° (Epoch: 04 August)

Event Time Altitude Azimuth Distance (km) Brightness Sun altitude
Rises 23:32:48 0° 337° (NNW) 2,443 7.4 -23.2°
Reaches altitude 10° 23:35:05 10° 324° (NW) 1,570 5.9 -23.3°
Enters shadow 23:37:21 24° 285° (WNW) 977 4.2 -23.3°
